Regional Weather Roundup
Issued by NWS

Home | Current Version | Previous Version | Graphics & Text | Print | Product List | Glossary On
Versions: 1 2 3 4 5 6 7 8 9 10 11 12 13 14 15 16 17 18 19 20 21 22 23 24 25 26 27 28 29 30 31 32 33 34 35 36 37 38 39 40 41 42 43 44 45 46 47 48 49 50
218
ASUS44 KLIX 281811
RWRLA
LOUISIANA WEATHER ROUNDUP
NATIONAL WEATHER SERVICE NEW ORLEANS LA
100 PM CDT SAT MAR 28 2015

NOTE: "FAIR" INDICATES FEW OR NO CLOUDS BELOW 12,000 FEET WITH NO
      SIGNIFICANT WEATHER AND/OR OBSTRUCTIONS TO VISIBILITY.
      SKY/WX - SKY CONDITION AND SIGNIFICANT WEATHER.
      TMP - AIR TEMPERATURE.    DP   - DEWPOINT TEMPERATURE.
      RH  - RELATIVE HUMIDITY.  PRES - PRESSURE.
      HX  - HEAT INDEX.         WCI  - WIND CHILL INDEX.

*  THESE STATIONS ARE NOT NWS OR FAA STATIONS AND ARE NOT UNDER
   NWS QUALITY CONTROL.

LAZ040-048-061>063-065-066-069-281900-
SOUTHEAST LOUISIANA

CITY           SKY/WX    TMP DP  RH WIND       PRES   REMARKS
N.O. AUDUBON     N/A    N/A N/A N/A MISG        N/A
                   6HR MAX TEMP:  66;

N.O. INTL ARPT MOSUNNY   64  43  46 CALM      30.22F
6HR MIN TEMP:  50; 6HR MAX TEMP:  65;

N.O. LAKEFRONT SUNNY     65  40  39 E9        30.24F
6HR MIN TEMP:  53; 6HR MAX TEMP:  65;

SLIDELL        SUNNY     62  38  40 S3        30.24F
6HR MIN TEMP:  41; 6HR MAX TEMP:  63;

BATON ROUGE    SUNNY     66  40  38 VRB3      30.21F
6HR MIN TEMP:  42; 6HR MAX TEMP:  67;

BOOTHVILLE     SUNNY     62  45  53 NE10      30.26F
6HR MIN TEMP:  54; 6HR MAX TEMP:  62;

BELLE CHASSE   MOSUNNY   62  41  46 VRB7      30.22F
6HR MIN TEMP:  47; 6HR MAX TEMP:  63;

BOGALUSA*        N/A     63  36  36 W3        30.25F
6HR MIN TEMP:  39; 6HR MAX TEMP:  63;

GALLIANO*      CLEAR     67  46  45 MISG      30.23F
6HR MIN TEMP:  54; 6HR MAX TEMP:  67;

NEW ROADS*     FAIR      65  41  42 E3        30.22S
6HR MIN TEMP:  45; 6HR MAX TEMP:  65;

GONZALES*      FAIR      67  43  42 SE6       30.20F
6HR MIN TEMP:  42; 6HR MAX TEMP:  67;

HAMMOND*       SUNNY     64  34  32 S7        30.24F
HOUMA*         SUNNY     66  48  52 E7        30.22F
PORT FOURCHON* CLEAR     63  48  59 E12       30.26F

$$

LAZ041-044-053-054-281900-
SOUTHWEST LOUISIANA

CITY           SKY/WX    TMP DP  RH WIND       PRES   REMARKS
LAKE CHARLES   SUNNY     71  50  47 S8        30.19F
6HR MIN TEMP:  47; 6HR MAX TEMP:  71;

LAFAYETTE      SUNNY     68  44  42 S5        30.20F
6HR MIN TEMP:  48; 6HR MAX TEMP:  69;

PATTERSON      SUNNY     66  45  45 SE7       30.23S
6HR MIN TEMP:  48; 6HR MAX TEMP:  66;

SALT POINT       N/A     65  48  54 SE13      30.20F
6HR MIN TEMP:  50; 6HR MAX TEMP:  66; 6HR PCP:  0.03;

NEW IBERIA     SUNNY     70  44  39 CALM      30.20F
6HR MIN TEMP:  48; 6HR MAX TEMP:  71;

CHENAULT AIRPK SUNNY     70  52  52 SW7       30.19F

$$

LAZ027-028-281900-
CENTRAL LOUISIANA

CITY           SKY/WX    TMP DP  RH WIND       PRES   REMARKS
FORT POLK      SUNNY     69  44  41 S8        30.16F
6HR MIN TEMP:  46; 6HR MAX TEMP:  70;

ALEXANDRIA INT SUNNY     66  45  46 E7        30.18F
6HR MIN TEMP:  42; 6HR MAX TEMP:  66;

ALEXANDRIA     MOSUNNY   66  40  38 SW6       30.20F
6HR MIN TEMP:  39; 6HR MAX TEMP:  66;


$$

LAZ001-002-281900-
NORTHWEST LOUISIANA

CITY           SKY/WX    TMP DP  RH WIND       PRES   REMARKS
SHREVEPORT     PTSUNNY   68  43  40 SE10      30.13F
6HR MIN TEMP:  43; 6HR MAX TEMP:  68;

BARKSDALE AFB  MOSUNNY   65  43  44 S9        30.15F
6HR MIN TEMP:  40; 6HR MAX TEMP:  66;

DTN SHREVEPORT MOSUNNY   63  44  50 SE14      30.15F
6HR MIN TEMP:  44; 6HR MAX TEMP:  64;


$$

LAZ014-016-281900-
NORTHEAST LOUISIANA

CITY           SKY/WX    TMP DP  RH WIND       PRES   REMARKS
MONROE         PTSUNNY   58  41  53 SE7       30.21F
6HR MIN TEMP:  42; 6HR MAX TEMP:  59;

TALLULAH       CLOUDY    54  37  52 E8        30.24F
6HR MIN TEMP:  40; 6HR MAX TEMP:  54;


$$




USA.gov is the U.S. government's official web portal to all federal, state and local government web resources and services.